Zurück zum Katalog

SL-12 R/B(2)

AktivGEO
NORAD 25339·ROCKET BODY·🇷🇺 Russia

Gestartet Sep 6, 1996 von Baikonur Cosmodrome

Loading…

TLE

AktuellSource: Space-Track

Epoche: Sep 14, 2026, 17:46 UTC

1 25339U 96053D   26257.74034744 -.00000126  00000-0  00000-0 0  9990
2 25339  15.1903   2.5075 0052724 315.9260  56.3496  0.98095168101526

Verfolge SL-12 R/B(2) in Echtzeit mit AllMySat

Download on the App Store